,,PA_Meas_PMT16A,,PR_Meas_QMR101_102,,RH_Meas_QMH101,,SR_Meas_QMS101,,TA_Meas_QMH101,,GenWind,,GenWind,
time,status,PA,status,PR,status,RH,status,SR,status,TA,status,DirAvg,status,SpdAvg,
2010-05-13, 00:00:05,VALID,916.216,VALID,0,VALID,95.7882,VALID,0,VALID,22.081,VALID,10,VALID,0.513672,
2010-05-13, 00:01:05,VALID,916.222,VALID,0,VALID,95.8416,VALID,0,VALID,22.1005,VALID,10,VALID,0.175391,
2010-05-13, 00:02:05,VALID,916.235,VALID,0,VALID,95.8797,VALID,0,VALID,22.1608,VALID,10,VALID,0.161328,
2010-05-13, 00:03:05,VALID,916.214,VALID,0,VALID,95.9254,VALID,0,VALID,22.1591,VALID,10,VALID,0.404687,
2010-05-13, 00:04:05,VALID,916.219,VALID,0,VALID,95.9254,VALID,0,VALID,22.1803,VALID,10,VALID,0.162891,
2010-05-13, 00:05:05,VALID,916.254,VALID,0,VALID,95.8645,VALID,0,VALID,22.1591,VALID,10,VALID,0.305859,
2010-05-13, 00:06:05,VALID,916.258,VALID,0,VALID,95.8645,VALID,0,VALID,22.1998,VALID,10,VALID,0.2875,
2010-05-13, 00:07:05,VALID,916.285,VALID,0,VALID,95.834,VALID,0,VALID,22.2193,VALID,10,VALID,0.440625,
2010-05-13, 00:08:05,VALID,916.27,VALID,0,VALID,95.712,VALID,0,VALID,22.1998,VALID,14,VALID,1.22969,
2010-05-13, 00:09:05,VALID,916.294,VALID,0,VALID,95.8111,VALID,0,VALID,22.1981,VALID,17,VALID,0.755078,
2010-05-13, 00:10:05,VALID,916.272,VALID,0,VALID,95.7501,VALID,0,VALID,22.1786,VALID,17,VALID,0.78125,
2010-05-13, 00:11:05,VALID,916.288,VALID,0,VALID,95.7806,VALID,0,VALID,22.1803,VALID,17,VALID,0.757422,
2010-05-13, 00:12:05,VALID,916.298,VALID,0,VALID,95.712,VALID,0,VALID,22.1608,VALID,17,VALID,0.76875,
2010-05-13, 00:13:05,VALID,916.274,VALID,0,VALID,95.6815,VALID,0,VALID,22.1608,VALID,17,VALID,1.51211,
2010-05-13, 00:14:05,VALID,916.266,VALID,0,VALID,95.5976,VALID,0,VALID,22.1005,VALID,13,VALID,0.854688,
2010-05-13, 00:15:05,VALID,916.272,VALID,0,VALID,95.5595,VALID,0,VALID,22.1022,VALID,358,VALID,1.04883,
2010-05-13, 00:16:05,VALID,916.253,VALID,0,VALID,95.529,VALID,0,VALID,22.0632,VALID,36,VALID,2.81562,
2010-05-13, 00:17:05,VALID,916.261,VALID,0,VALID,95.59,VALID,0,VALID,22.042,VALID,29,VALID,1.58047,
2010-05-13, 00:18:05,VALID,916.233,VALID,0,VALID,95.6281,VALID,0,VALID,22.042,VALID,13,VALID,1.66758,
2010-05-13, 00:19:05,VALID,916.227,VALID,0,VALID,95.7349,VALID,0,VALID,22.042,VALID,28,VALID,0.960938,
2010-05-13, 00:20:05,VALID,916.218,VALID,0,VALID,95.7806,VALID,0,VALID,22.0437,VALID,28,VALID,0.732422,
2010-05-13, 00:21:05,VALID,916.21,VALID,0,VALID,95.8873,VALID,0,VALID,22.0225,VALID,28,VALID,0.869531,
2010-05-13, 00:22:05,VALID,916.216,VALID,0,VALID,95.8645,VALID,0,VALID,22.0208,VALID,28,VALID,1.08086,
2010-05-13, 00:23:05,VALID,916.211,VALID,0,VALID,95.895,VALID,0.107441,VALID,22.0208,VALID,28,VALID,0.191406,
2010-05-13, 00:24:05,VALID,916.2,VALID,0,VALID,95.712,VALID,0,VALID,21.9623,VALID,109,VALID,0.307813,
2010-05-13, 00:25:05,VALID,916.199,VALID,0,VALID,95.6281,VALID,0.107441,VALID,21.9428,VALID,108,VALID,0.362109,
2010-05-13, 00:26:05,VALID,916.187,VALID,0,VALID,95.3613,VALID,0.107441,VALID,21.9233,VALID,37,VALID,0.685938,
2010-05-13, 00:27:05,VALID,916.185,VALID,0,VALID,95.1936,VALID,0,VALID,21.8842,VALID,55,VALID,1.22734,
2010-05-13, 00:28:05,VALID,916.157,VALID,0,VALID,95.1479,VALID,0,VALID,21.9249,VALID,356,VALID,0.900391,
2010-05-13, 00:29:05,VALID,916.158,VALID,0,VALID,94.9496,VALID,0.107441,VALID,21.8452,VALID,46,VALID,0.630469,
2010-05-13, 00:30:05,VALID,916.124,VALID,0,VALID,94.9268,VALID,0.107441,VALID,21.8062,VALID,45,VALID,1.28789,
2010-05-13, 00:31:05,VALID,916.117,VALID,0,VALID,94.8124,VALID,0,VALID,21.7688,VALID,32,VALID,0.739453,
2010-05-13, 00:32:05,VALID,916.11,VALID,0,VALID,94.8887,VALID,0,VALID,21.7688,VALID,32,VALID,1.15039,
2010-05-13, 00:33:05,VALID,916.106,VALID,0,VALID,94.881,VALID,0,VALID,21.7493,VALID,32,VALID,0.420703,
2010-05-13, 00:34:05,VALID,916.137,VALID,0,VALID,94.8582,VALID,0.107441,VALID,21.6696,VALID,7,VALID,1.01445,
2010-05-13, 00:35:05,VALID,916.123,VALID,0,VALID,95.003,VALID,0.107441,VALID,21.6908,VALID,7,VALID,1.09102,
2010-05-13, 00:36:05,VALID,916.092,VALID,0,VALID,95.1021,VALID,0.107441,VALID,21.6501,VALID,7,VALID,0.367969,
2010-05-13, 00:37:05,VALID,916.057,VALID,0,VALID,94.9649,VALID,0,VALID,21.5932,VALID,7,VALID,1.14453,
2010-05-13, 00:38:05,VALID,916.039,VALID,0,VALID,94.881,VALID,0,VALID,21.5542,VALID,7,VALID,1.375,
2010-05-13, 00:39:05,VALID,916.057,VALID,0,VALID,94.8429,VALID,0,VALID,21.4957,VALID,7,VALID,1.50664,
2010-05-13, 00:40:05,VALID,916.046,VALID,0,VALID,94.9801,VALID,0,VALID,21.4567,VALID,7,VALID,1.38086,
2010-05-13, 00:41:05,VALID,916.028,VALID,0,VALID,94.8658,VALID,0,VALID,21.4177,VALID,24,VALID,1.48438,
2010-05-13, 00:42:05,VALID,916.036,VALID,0,VALID,94.5075,VALID,0,VALID,21.3786,VALID,360,VALID,1.69805,
2010-05-13, 00:43:05,VALID,916.015,VALID,0,VALID,94.4617,VALID,0,VALID,21.3786,VALID,18,VALID,1.77891,
2010-05-13, 00:44:05,VALID,916.007,VALID,0,VALID,94.538,VALID,0,VALID,21.3786,VALID,358,VALID,0.926953,
2010-05-13, 00:45:05,VALID,915.995,VALID,0,VALID,94.416,VALID,0,VALID,21.3803,VALID,336,VALID,1.39805,
2010-05-13, 00:46:05,VALID,915.977,VALID,0,VALID,94.538,VALID,0,VALID,21.3786,VALID,352,VALID,1.21172,
2010-05-13, 00:47:05,VALID,915.997,VALID,0,VALID,94.66,VALID,0,VALID,21.3803,VALID,348,VALID,1.35078,
2010-05-13, 00:48:05,VALID,915.978,VALID,0,VALID,94.9039,VALID,0,VALID,21.3803,VALID,26,VALID,1.44766,
2010-05-13, 00:49:05,VALID,915.987,VALID,0,VALID,95.2012,VALID,0,VALID,21.3608,VALID,30,VALID,1.95469,
2010-05-13, 00:50:05,VALID,915.966,VALID,0,VALID,95.3613,VALID,0,VALID,21.3803,VALID,12,VALID,1.4543,
2010-05-13, 00:51:05,VALID,915.967,VALID,0,VALID,95.5062,VALID,0,VALID,21.3608,VALID,12,VALID,0.818359,
2010-05-13, 00:52:05,VALID,915.982,VALID,0,VALID,95.6129,VALID,0,VALID,21.3396,VALID,332,VALID,0.776172,
2010-05-13, 00:53:05,VALID,915.958,VALID,0,VALID,95.7044,VALID,0,VALID,21.3803,VALID,332,VALID,0.963672,
2010-05-13, 00:54:05,VALID,915.949,VALID,0,VALID,95.7196,VALID,0,VALID,21.3608,VALID,332,VALID,1.0543,
2010-05-13, 00:55:05,VALID,915.962,VALID,0,VALID,95.5214,VALID,0,VALID,21.3201,VALID,332,VALID,1.29297,
2010-05-13, 00:56:05,VALID,915.92,VALID,0,VALID,95.4833,VALID,0,VALID,21.3201,VALID,332,VALID,1.12109,
2010-05-13, 00:57:05,VALID,915.94,VALID,0,VALID,95.3461,VALID,0,VALID,21.3412,VALID,332,VALID,0.999609,
2010-05-13, 00:58:05,VALID,915.894,VALID,0,VALID,95.3003,VALID,0,VALID,21.3608,VALID,332,VALID,1.28359,
2010-05-13, 00:59:05,VALID,915.927,VALID,0,VALID,95.3461,VALID,0,VALID,21.3396,VALID,332,VALID,1.48867,
2010-05-13, 01:00:05,VALID,915.881,VALID,0,VALID,95.3994,VALID,0,VALID,21.3201,VALID,343,VALID,1.21289,
2010-05-13, 01:01:05,VALID,915.895,VALID,0,VALID,95.468,VALID,0,VALID,21.3201,VALID,21,VALID,1.08867,
2010-05-13, 01:02:05,VALID,915.886,VALID,0,VALID,95.5748,VALID,0,VALID,21.3412,VALID,21,VALID,0.707812,
2010-05-13, 01:03:05,VALID,915.85,VALID,0,VALID,95.529,VALID,0,VALID,21.3217,VALID,21,VALID,1.03047,
2010-05-13, 01:04:05,VALID,915.848,VALID,0,VALID,95.5595,VALID,0,VALID,21.2811,VALID,21,VALID,0.946875,
2010-05-13, 01:05:05,VALID,915.819,VALID,0,VALID,95.6815,VALID,0,VALID,21.3217,VALID,21,VALID,1.18008,
2010-05-13, 01:06:05,VALID,915.785,VALID,0,VALID,95.6662,VALID,0,VALID,21.3217,VALID,36,VALID,1.40977,
2010-05-13, 01:07:05,VALID,915.821,VALID,0,VALID,95.5976,VALID,0,VALID,21.2616,VALID,6,VALID,1.81914,
2010-05-13, 01:08:05,VALID,915.843,VALID,0,VALID,95.6281,VALID,0,VALID,21.2632,VALID,347,VALID,1.58516,
2010-05-13, 01:09:05,VALID,915.85,VALID,0,VALID,95.7044,VALID,0,VALID,21.2226,VALID,341,VALID,1.32617,
2010-05-13, 01:10:05,VALID,915.81,VALID,0,VALID,95.7425,VALID,0,VALID,21.2242,VALID,341,VALID,1.46289,
2010-05-13, 01:11:05,VALID,915.83,VALID,0,VALID,95.7958,VALID,0,VALID,21.2031,VALID,4,VALID,1.39844,
2010-05-13, 01:12:05,VALID,915.816,VALID,0,VALID,95.8797,VALID,0,VALID,21.164,VALID,31,VALID,1.0457,
2010-05-13, 01:13:05,VALID,915.763,VALID,0,VALID,95.7806,VALID,0,VALID,21.1657,VALID,10,VALID,1.96563,
2010-05-13, 01:14:05,VALID,915.784,VALID,0,VALID,95.6967,VALID,0,VALID,21.1657,VALID,356,VALID,1.40117,
2010-05-13, 01:15:05,VALID,915.787,VALID,0,VALID,95.5976,VALID,0,VALID,21.1445,VALID,10,VALID,1.39492,
2010-05-13, 01:16:05,VALID,915.795,VALID,0,VALID,95.5367,VALID,0,VALID,21.1461,VALID,13,VALID,1.60234,
2010-05-13, 01:17:05,VALID,915.774,VALID,0,VALID,95.2698,VALID,0,VALID,21.1461,VALID,27,VALID,1.95742,
2010-05-13, 01:18:05,VALID,915.757,VALID,0,VALID,95.1479,VALID,0,VALID,21.1657,VALID,28,VALID,1.17539,
2010-05-13, 01:19:05,VALID,915.741,VALID,0,VALID,95.0945,VALID,0,VALID,21.1657,VALID,28,VALID,1.26602,
2010-05-13, 01:20:05,VALID,915.728,VALID,0,VALID,95.186,VALID,0,VALID,21.1445,VALID,28,VALID,0.890625,
2010-05-13, 01:21:05,VALID,915.683,VALID,0,VALID,95.2317,VALID,0.107441,VALID,21.125,VALID,28,VALID,1.01406,
2010-05-13, 01:22:05,VALID,915.686,VALID,0,VALID,95.2165,VALID,0,VALID,21.0876,VALID,28,VALID,1.51797,
2010-05-13, 01:23:05,VALID,915.625,VALID,0,VALID,95.2088,VALID,0,VALID,21.0876,VALID,28,VALID,1.31133,
2010-05-13, 01:24:05,VALID,915.608,VALID,0,VALID,95.0945,VALID,0,VALID,21.0681,VALID,3,VALID,1.42578,
2010-05-13, 01:25:05,VALID,915.571,VALID,0,VALID,95.0259,VALID,0,VALID,21.0681,VALID,10,VALID,1.22109,
2010-05-13, 01:26:05,VALID,915.58,VALID,0,VALID,94.9496,VALID,0,VALID,21.0486,VALID,16,VALID,1.49453,
2010-05-13, 01:27:05,VALID,915.569,VALID,0,VALID,95.0183,VALID,0,VALID,21.0681,VALID,16,VALID,0.735547,
2010-05-13, 01:28:05,VALID,915.558,VALID,0,VALID,94.9878,VALID,0,VALID,21.0681,VALID,16,VALID,0.814844,
2010-05-13, 01:29:05,VALID,915.585,VALID,0,VALID,95.1021,VALID,0,VALID,21.0486,VALID,16,VALID,0.740234,
2010-05-13, 01:30:05,VALID,915.578,VALID,0,VALID,95.0564,VALID,0,VALID,21.0291,VALID,16,VALID,1.07383,
2010-05-13, 01:31:05,VALID,915.601,VALID,0,VALID,94.9801,VALID,0,VALID,21.0291,VALID,16,VALID,0.766406,
2010-05-13, 01:32:05,VALID,915.573,VALID,0,VALID,94.7743,VALID,0,VALID,21.0291,VALID,19,VALID,1.44648,
2010-05-13, 01:33:05,VALID,915.614,VALID,0,VALID,94.6371,VALID,0,VALID,21.0307,VALID,19,VALID,1.07969,
2010-05-13, 01:34:05,VALID,915.59,VALID,0,VALID,94.4617,VALID,0,VALID,21.0096,VALID,19,VALID,1.87266,
2010-05-13, 01:35:05,VALID,915.633,VALID,0,VALID,94.3626,VALID,0,VALID,21.0486,VALID,11,VALID,1.5207,
2010-05-13, 01:36:05,VALID,915.61,VALID,0,VALID,94.355,VALID,0,VALID,21.0486,VALID,10,VALID,1.27383,
2010-05-13, 01:37:05,VALID,915.622,VALID,0,VALID,94.2559,VALID,0,VALID,21.047,VALID,9,VALID,1.52031,
2010-05-13, 01:38:05,VALID,915.599,VALID,0,VALID,94.1111,VALID,0,VALID,21.047,VALID,46,VALID,1.3043,
2010-05-13, 01:39:05,VALID,915.587,VALID,0,VALID,94.0882,VALID,0.107441,VALID,21.0665,VALID,54,VALID,1.43984,
2010-05-13, 01:40:05,VALID,915.588,VALID,0,VALID,94.0501,VALID,0.107441,VALID,21.086,VALID,54,VALID,0.951563,
2010-05-13, 01:41:04,VALID,915.555,VALID,0,VALID,94.1187,VALID,0,VALID,21.047,VALID,54,VALID,1.00625,
2010-05-13, 01:42:04,VALID,915.536,VALID,0,VALID,93.9815,VALID,0,VALID,21.047,VALID,28,VALID,1.09844,
2010-05-13, 01:43:04,VALID,915.454,VALID,0,VALID,93.9662,VALID,0,VALID,21.047,VALID,16,VALID,0.872266,
2010-05-13, 01:44:04,VALID,915.455,VALID,0,VALID,94.0958,VALID,0.107441,VALID,21.047,VALID,10,VALID,0.391797,
2010-05-13, 01:45:04,VALID,915.392,VALID,0,VALID,94.2178,VALID,0,VALID,21.047,VALID,9,VALID,0.742188,
2010-05-13, 01:46:04,VALID,915.34,VALID,0,VALID,94.3169,VALID,0,VALID,21.047,VALID,9,VALID,0.550781,
2010-05-13, 01:47:04,VALID,915.31,VALID,0,VALID,94.2178,VALID,0.107441,VALID,21.0275,VALID,9,VALID,0.839453,
2010-05-13, 01:48:04,VALID,915.287,VALID,0,VALID,94.1721,VALID,0,VALID,21.0275,VALID,9,VALID,0.625391,
2010-05-13, 01:49:04,VALID,915.248,VALID,0,VALID,94.4465,VALID,0,VALID,21.0275,VALID,9,VALID,0.640234,
2010-05-13, 01:50:04,VALID,915.182,VALID,0,VALID,94.6905,VALID,0.107441,VALID,21.0275,VALID,9,VALID,0.979297,
2010-05-13, 01:51:04,VALID,915.199,VALID,0,VALID,94.9649,VALID,0.107441,VALID,20.9885,VALID,9,VALID,1.68086,
2010-05-13, 01:52:04,VALID,915.172,VALID,0,VALID,94.6905,VALID,0.107441,VALID,20.93,VALID,9,VALID,1.34883,
2010-05-13, 01:53:04,VALID,915.181,VALID,0,VALID,94.2635,VALID,0.107441,VALID,20.9105,VALID,8,VALID,1.19062,
2010-05-13, 01:54:04,VALID,915.141,VALID,0,VALID,93.9891,VALID,0.107441,VALID,20.93,VALID,8,VALID,0.694531,
2010-05-13, 01:55:04,VALID,915.113,VALID,0,VALID,93.4859,VALID,0,VALID,20.9511,VALID,11,VALID,1.48555,
2010-05-13, 01:56:04,VALID,915.072,VALID,0,VALID,93.3106,VALID,0.107441,VALID,20.9495,VALID,11,VALID,1.47578,
2010-05-13, 01:57:04,VALID,915.041,VALID,0,VALID,93.0057,VALID,0.107441,VALID,20.9495,VALID,1,VALID,1.29023,
2010-05-13, 01:58:04,VALID,914.997,VALID,0,VALID,92.6474,VALID,0,VALID,20.969,VALID,355,VALID,1.46602,
2010-05-13, 01:59:04,VALID,915.012,VALID,0,VALID,92.5635,VALID,0,VALID,20.969,VALID,355,VALID,0.953516,
2010-05-13, 02:00:04,VALID,915.015,VALID,0,VALID,92.4568,VALID,0.107441,VALID,20.969,VALID,355,VALID,1.33242,
2010-05-13, 02:01:04,VALID,914.984,VALID,0,VALID,92.5406,VALID,0.107441,VALID,20.969,VALID,355,VALID,1.02852,
2010-05-13, 02:02:04,VALID,915.001,VALID,0,VALID,92.5254,VALID,0.107441,VALID,20.9495,VALID,355,VALID,1.66914,
2010-05-13, 02:03:04,VALID,915.013,VALID,0,VALID,92.6931,VALID,0,VALID,20.9495,VALID,355,VALID,1.21328,
2010-05-13, 02:04:04,VALID,914.999,VALID,0,VALID,92.7617,VALID,0,VALID,20.9511,VALID,355,VALID,1.1918,
2010-05-13, 02:05:04,VALID,914.994,VALID,0,VALID,92.8303,VALID,0,VALID,20.93,VALID,355,VALID,1.26016,
2010-05-13, 02:06:04,VALID,915.01,VALID,0,VALID,92.9447,VALID,0,VALID,20.9105,VALID,355,VALID,0.933203,
2010-05-13, 02:07:04,VALID,914.982,VALID,0,VALID,93.0285,VALID,0.107441,VALID,20.891,VALID,355,VALID,0.766797,
2010-05-13, 02:08:04,VALID,914.969,VALID,0,VALID,93.0438,VALID,0.107441,VALID,20.891,VALID,355,VALID,0.911328,
2010-05-13, 02:09:04,VALID,914.997,VALID,0,VALID,93.0514,VALID,0.107441,VALID,20.8714,VALID,355,VALID,0.958594,
2010-05-13, 02:10:04,VALID,914.952,VALID,0,VALID,92.9676,VALID,0,VALID,20.912,VALID,355,VALID,1.14141,
2010-05-13, 02:11:04,VALID,914.927,VALID,0,VALID,92.8532,VALID,0,VALID,20.891,VALID,355,VALID,1.11211,
2010-05-13, 02:12:04,VALID,914.911,VALID,0,VALID,92.7998,VALID,0,VALID,20.9105,VALID,355,VALID,0.794531,
2010-05-13, 02:13:04,VALID,914.869,VALID,0,VALID,92.6321,VALID,0,VALID,20.9105,VALID,355,VALID,0.957031,
2010-05-13, 02:14:04,VALID,914.846,VALID,0,VALID,92.5711,VALID,0,VALID,20.9105,VALID,355,VALID,0.990625,
2010-05-13, 02:15:04,VALID,914.812,VALID,0,VALID,92.4797,VALID,0,VALID,20.93,VALID,355,VALID,0.701563,
2010-05-13, 02:16:04,VALID,914.795,VALID,0,VALID,92.5635,VALID,0,VALID,20.9495,VALID,355,VALID,0.713281,
2010-05-13, 02:17:04,VALID,914.765,VALID,0,VALID,92.5102,VALID,0.107441,VALID,20.9901,VALID,355,VALID,0.425781,
2010-05-13, 02:18:04,VALID,914.726,VALID,0,VALID,92.4263,VALID,0,VALID,20.9885,VALID,354,VALID,0.570313,
2010-05-13, 02:19:04,VALID,914.715,VALID,0,VALID,92.3882,VALID,0,VALID,21.008,VALID,354,VALID,0.714063,
2010-05-13, 02:20:04,VALID,914.689,VALID,0,VALID,92.3196,VALID,0,VALID,21.0096,VALID,354,VALID,0.542188,
2010-05-13, 02:21:04,VALID,914.655,VALID,0,VALID,92.4492,VALID,0,VALID,20.9901,VALID,354,VALID,0.301953,
2010-05-13, 02:22:04,VALID,914.639,VALID,0,VALID,92.4492,VALID,0,VALID,20.9495,VALID,354,VALID,0.471875,
2010-05-13, 02:23:04,VALID,914.638,VALID,0,VALID,92.4873,VALID,0,VALID,20.93,VALID,354,VALID,0.738672,
2010-05-13, 02:24:04,VALID,914.621,VALID,0,VALID,92.6779,VALID,0.107441,VALID,20.891,VALID,354,VALID,1.43828,
2010-05-13, 02:25:04,VALID,914.647,VALID,0,VALID,92.4263,VALID,0,VALID,20.8519,VALID,47,VALID,1.63242,
2010-05-13, 02:26:04,VALID,914.673,VALID,0,VALID,91.7783,VALID,0,VALID,20.891,VALID,7,VALID,1.61953,
2010-05-13, 02:27:04,VALID,914.691,VALID,0,VALID,91.8393,VALID,0.107441,VALID,20.969,VALID,330,VALID,0.960938,
2010-05-13, 02:28:04,VALID,914.68,VALID,0,VALID,91.7859,VALID,0.107441,VALID,21.008,VALID,337,VALID,0.696094,
2010-05-13, 02:29:04,VALID,914.682,VALID,0,VALID,91.8088,VALID,0,VALID,20.9885,VALID,338,VALID,1.05781,
2010-05-13, 02:30:04,VALID,914.668,VALID,0,VALID,92.0146,VALID,0,VALID,20.9885,VALID,338,VALID,0.943359,
2010-05-13, 02:31:04,VALID,914.672,VALID,0,VALID,92.1519,VALID,0.107441,VALID,20.969,VALID,339,VALID,0.976563,
2010-05-13, 02:32:04,VALID,914.641,VALID,0,VALID,92.251,VALID,0,VALID,20.9706,VALID,10,VALID,1.31562,
2010-05-13, 02:33:04,VALID,914.677,VALID,0,VALID,92.2967,VALID,0,VALID,20.93,VALID,10,VALID,0.801562,
2010-05-13, 02:34:04,VALID,914.639,VALID,0,VALID,92.4034,VALID,0,VALID,20.9511,VALID,10,VALID,0.746484,
2010-05-13, 02:35:04,VALID,914.641,VALID,0,VALID,92.5483,VALID,0.107441,VALID,20.912,VALID,10,VALID,1.05859,
2010-05-13, 02:36:04,VALID,914.629,VALID,0,VALID,92.716,VALID,0,VALID,20.8714,VALID,10,VALID,0.889063,
2010-05-13, 02:37:04,VALID,914.638,VALID,0,VALID,92.7312,VALID,0.107441,VALID,20.8519,VALID,10,VALID,0.939062,
2010-05-13, 02:38:04,VALID,914.642,VALID,0,VALID,92.8913,VALID,0.107441,VALID,20.8324,VALID,10,VALID,0.719531,
2010-05-13, 02:39:04,VALID,914.661,VALID,0,VALID,92.8913,VALID,0,VALID,20.7918,VALID,10,VALID,0.770312,
2010-05-13, 02:40:04,VALID,914.645,VALID,0,VALID,92.9828,VALID,0,VALID,20.795,VALID,10,VALID,0.912891,
2010-05-13, 02:41:04,VALID,914.687,VALID,0,VALID,92.9828,VALID,0,VALID,20.7544,VALID,10,VALID,1.05234,
2010-05-13, 02:42:04,VALID,914.631,VALID,0,VALID,93.0133,VALID,0.107441,VALID,20.7349,VALID,10,VALID,0.778125,
2010-05-13, 02:43:04,VALID,914.643,VALID,0,VALID,92.838,VALID,0,VALID,20.6959,VALID,10,VALID,0.986328,
2010-05-13, 02:44:04,VALID,914.629,VALID,0,VALID,92.8303,VALID,0,VALID,20.717,VALID,10,VALID,0.118359,
2010-05-13, 02:45:04,VALID,914.617,VALID,0,VALID,92.8227,VALID,0,VALID,20.6959,VALID,10,VALID,0.607422,
2010-05-13, 02:46:04,VALID,914.575,VALID,0,VALID,93.2496,VALID,0,VALID,20.7154,VALID,10,VALID,0.266797,
2010-05-13, 02:47:04,VALID,914.577,VALID,0,VALID,93.4097,VALID,0,VALID,20.6959,VALID,10,VALID,0.257422,
2010-05-13, 02:48:04,VALID,914.555,VALID,0,VALID,93.4859,VALID,0,VALID,20.7154,VALID,10,VALID,0.164453,
2010-05-13, 02:49:04,VALID,914.545,VALID,0,VALID,93.3259,VALID,0,VALID,20.6748,VALID,10,VALID,0.292969,
2010-05-13, 02:50:04,VALID,914.538,VALID,0,VALID,93.2877,VALID,0,VALID,20.6975,VALID,10,VALID,0,
2010-05-13, 02:51:04,VALID,914.515,VALID,0,VALID,93.3487,VALID,0.107441,VALID,20.6764,VALID,10,VALID,0.242969,
2010-05-13, 02:52:04,VALID,914.508,VALID,0,VALID,93.2344,VALID,0.107441,VALID,20.6959,VALID,10,VALID,0.425,
2010-05-13, 02:53:04,VALID,914.519,VALID,0,VALID,93.1581,VALID,0.107441,VALID,20.6959,VALID,10,VALID,0.473437,
2010-05-13, 02:54:04,VALID,914.472,VALID,0,VALID,93.1353,VALID,0.107441,VALID,20.6569,VALID,10,VALID,0.586328,
2010-05-13, 02:55:04,VALID,914.452,VALID,0,VALID,93.2115,VALID,0.107441,VALID,20.6764,VALID,10,VALID,0.285547,
2010-05-13, 02:56:04,VALID,914.446,VALID,0,VALID,93.4478,VALID,0,VALID,20.717,VALID,10,VALID,0.0996094,
2010-05-13, 02:57:04,VALID,914.442,VALID,0,VALID,93.7604,VALID,0.107441,VALID,20.6959,VALID,10,VALID,0.170312,
2010-05-13, 02:58:04,VALID,914.388,VALID,0,VALID,93.646,VALID,0,VALID,20.6358,VALID,10,VALID,0,
2010-05-13, 02:59:04,VALID,914.384,VALID,0,VALID,93.2572,VALID,0.107441,VALID,20.6374,VALID,10,VALID,0.331641,
2010-05-13, 03:00:04,VALID,914.374,VALID,0,VALID,93.4859,VALID,0.107441,VALID,20.5999,VALID,10,VALID,0,
2010-05-13, 03:01:04,VALID,914.363,VALID,0,VALID,93.4478,VALID,0.107441,VALID,20.5804,VALID,10,VALID,0.251172,
2010-05-13, 03:02:04,VALID,914.372,VALID,0,VALID,93.4707,VALID,0.107441,VALID,20.5789,VALID,10,VALID,0,
2010-05-13, 03:03:04,VALID,914.397,VALID,0,VALID,93.7528,VALID,0,VALID,20.5789,VALID,10,VALID,0.245312,
2010-05-13, 03:04:04,VALID,914.407,VALID,0,VALID,94.1568,VALID,0,VALID,20.5984,VALID,10,VALID,0,
2010-05-13, 03:05:04,VALID,914.355,VALID,0,VALID,94.1416,VALID,0.107441,VALID,20.5609,VALID,10,VALID,0,
2010-05-13, 03:06:04,VALID,914.358,VALID,0,VALID,94.073,VALID,0,VALID,20.5609,VALID,10,VALID,0.512109,
2010-05-13, 03:07:04,VALID,914.31,VALID,0,VALID,93.3945,VALID,0,VALID,20.4829,VALID,10,VALID,0.539453,
2010-05-13, 03:08:04,VALID,914.296,VALID,0,VALID,93.7299,VALID,0.107441,VALID,20.4033,VALID,10,VALID,0.377734,
2010-05-13, 03:09:04,VALID,914.226,VALID,0,VALID,94.5151,VALID,0,VALID,20.4033,VALID,10,VALID,0.438281,
2010-05-13, 03:10:04,VALID,914.197,VALID,0,VALID,94.7972,VALID,0,VALID,20.3643,VALID,10,VALID,0.503906,
2010-05-13, 03:11:04,VALID,914.149,VALID,0,VALID,94.9344,VALID,0,VALID,20.3659,VALID,10,VALID,0.494531,
2010-05-13, 03:12:04,VALID,914.137,VALID,0,VALID,94.8277,VALID,0,VALID,20.3253,VALID,10,VALID,0.655859,
2010-05-13, 03:13:04,VALID,914.102,VALID,0,VALID,94.6218,VALID,0,VALID,20.3253,VALID,10,VALID,0.584766,
2010-05-13, 03:14:04,VALID,914.063,VALID,0,VALID,94.5456,VALID,0.107441,VALID,20.3448,VALID,10,VALID,0.428906,
2010-05-13, 03:15:04,VALID,914.099,VALID,0,VALID,94.2712,VALID,0.107441,VALID,20.3643,VALID,10,VALID,0.478125,
2010-05-13, 03:16:04,VALID,914.064,VALID,0,VALID,94.0272,VALID,0,VALID,20.3838,VALID,10,VALID,0.197656,
2010-05-13, 03:17:04,VALID,914.061,VALID,0,VALID,93.8366,VALID,0.107441,VALID,20.3628,VALID,10,VALID,0,
2010-05-13, 03:18:04,VALID,914.025,VALID,0,VALID,93.768,VALID,0.107441,VALID,20.3854,VALID,10,VALID,0,
2010-05-13, 03:19:04,VALID,914.025,VALID,0,VALID,93.7528,VALID,0,VALID,20.3659,VALID,10,VALID,0.171094,
2010-05-13, 03:20:04,VALID,914.037,VALID,0,VALID,93.8671,VALID,0,VALID,20.3269,VALID,10,VALID,0.251563,
2010-05-13, 03:21:04,VALID,914.02,VALID,0,VALID,93.9586,VALID,0,VALID,20.3074,VALID,10,VALID,0.18125,
2010-05-13, 03:22:04,VALID,914.021,VALID,0,VALID,93.9815,VALID,0,VALID,20.2473,VALID,10,VALID,0.177734,
2010-05-13, 03:23:04,VALID,914.03,VALID,0,VALID,94.1568,VALID,0.107441,VALID,20.2489,VALID,10,VALID,0.08125,
2010-05-13, 03:24:04,VALID,914.029,VALID,0,VALID,94.3398,VALID,0.107441,VALID,20.2098,VALID,10,VALID,0,
2010-05-13, 03:25:04,VALID,914.032,VALID,0,VALID,94.355,VALID,0,VALID,20.1693,VALID,10,VALID,0.284375,
2010-05-13, 03:26:04,VALID,914.007,VALID,0,VALID,94.3474,VALID,0,VALID,20.1513,VALID,10,VALID,0.570703,
2010-05-13, 03:27:04,VALID,913.991,VALID,0,VALID,94.7286,VALID,0.107441,VALID,20.1708,VALID,10,VALID,0.893359,
2010-05-13, 03:28:04,VALID,914.006,VALID,0,VALID,94.9115,VALID,0.107441,VALID,20.1513,VALID,10,VALID,0.764453,
2010-05-13, 03:29:04,VALID,913.962,VALID,0,VALID,95.0869,VALID,0.107441,VALID,20.1108,VALID,10,VALID,0.659766,
2010-05-13, 03:30:04,VALID,913.973,VALID,0,VALID,95.2012,VALID,0.107441,VALID,20.0733,VALID,10,VALID,0.330078,
2010-05-13, 03:31:04,VALID,913.944,VALID,0,VALID,95.3003,VALID,0,VALID,20.0328,VALID,10,VALID,0.602344,
2010-05-13, 03:32:04,VALID,913.918,VALID,0,VALID,95.3003,VALID,0,VALID,19.9953,VALID,10,VALID,0.550781,
2010-05-13, 03:33:04,VALID,913.903,VALID,0,VALID,95.4528,VALID,0,VALID,19.9953,VALID,10,VALID,0.313281,
2010-05-13, 03:34:04,VALID,913.869,VALID,0,VALID,95.5824,VALID,0.107441,VALID,19.9953,VALID,10,VALID,0.3125,
2010-05-13, 03:35:04,VALID,913.836,VALID,0,VALID,95.7577,VALID,0,VALID,20.0148,VALID,10,VALID,0.392578,
2010-05-13, 03:36:04,VALID,913.775,VALID,0,VALID,95.8568,VALID,0,VALID,19.9953,VALID,10,VALID,0.307422,
2010-05-13, 03:37:04,VALID,913.756,VALID,0,VALID,95.8492,VALID,0,VALID,19.9758,VALID,10,VALID,0.307031,
2010-05-13, 03:38:04,VALID,913.748,VALID,0,VALID,95.8568,VALID,0,VALID,19.9563,VALID,10,VALID,0.598437,
2010-05-13, 03:39:04,VALID,913.698,VALID,0,VALID,95.9788,VALID,0,VALID,19.9953,VALID,10,VALID,0.841016,
2010-05-13, 03:40:04,VALID,913.698,VALID,0,VALID,96.0245,VALID,0,VALID,19.9563,VALID,10,VALID,0.75,
2010-05-13, 03:41:04,VALID,913.72,VALID,0,VALID,96.0703,VALID,0,VALID,19.9368,VALID,10,VALID,0.319922,
2010-05-13, 03:42:04,VALID,913.707,VALID,0,VALID,96.116,VALID,0,VALID,19.9368,VALID,10,VALID,0.233984,
2010-05-13, 03:43:04,VALID,913.691,VALID,0,VALID,96.1236,VALID,0,VALID,19.9173,VALID,10,VALID,0.30625,
2010-05-13, 03:44:04,VALID,913.672,VALID,0,VALID,96.1541,VALID,0,VALID,19.9173,VALID,10,VALID,0.214062,